Location: Waning Moon II Observatory
(30.3730°N, 89.7620°W)
Time: 14:23:09
(UTC-05:00)

Daily predictions for brighter satellites

Satellite Brightness Start Highest point End
(mag) Time Altitude Azimuth Time Altitude Azimuth Time Altitude Azimuth
Cosmos 1805 Rocket 4.3 19:50:12 10° NNE 19:54:07 33° E 19:58:01 10° SE
Cosmos 2154 Rocket 4.4 19:48:56 10° SSE 19:54:46 42° E 20:00:33 10° NNE
SL-8 R/B 3.7 19:50:07 10° SW 19:54:52 74° SE 19:59:38 10° NE
ATLAS CENTAUR R/B 1.5 19:51:39 10° S 19:54:59 37° ESE 19:58:26 10° NE
Cosmos 2184 Rocket 4.0 19:51:54 10° S 19:58:04 87° E 20:04:15 10° N
NOSS 2-1 (E) 4.3 20:00:54 10° SW 20:04:25 47° WNW 20:08:04 10° NNE
Resurs 01 Rocket 3.3 20:02:21 10° ESE 20:05:12 17° ENE 20:08:04 10° NNE
SJ-6B 3.2 20:04:56 10° SSE 20:08:48 45° ENE 20:12:38 10° N
Haruka 3.5 20:00:34 10° W 20:12:25 81° SSW 20:15:52 13° ESE
deb Centaur AC-2 4.0 20:09:13 10° W 20:13:32 87° S 20:17:41 13° E
Cosmos 1939 Rocket 4.1 20:13:06 13° ESE 20:15:38 23° ENE 20:18:43 10° NNE
NOSS 3-3 (A) 4.1 20:12:07 10° SSW 20:18:00 80° WNW 20:24:23 10° NNE
Cosmos 2341 Rocket 4.4 20:12:09 10° SSE 20:18:05 43° E 20:24:01 10° NNE
NOSS 3-3 (C) 4.0 20:12:15 10° SSW 20:18:07 80° WNW 20:24:28 10° NNE
NOSS 0 Rocket 4.1 20:13:18 10° S 20:19:12 51° ESE 20:25:10 10° NNE
Aureole 2 4.4 20:22:26 10° S 20:25:29 42° ESE 20:28:18 10° NNE
Cosmos 1980 3.9 20:20:37 10° S 20:26:01 47° ESE 20:31:27 10° NNE
Cosmos 494 Rocket 4.3 20:24:19 10° NNW 20:29:30 71° WSW 20:34:42 10° S
USA 267 4.3 20:28:56 10° ENE 20:33:42 21° ESE 20:38:26 10° S
Cosmos 1666 Rocket 3.6 20:30:27 10° N 20:34:53 62° E 20:39:02 11° SSE
GPS 2-05 Rocket1 3.8 20:32:52 10° W 20:36:00 35° SSW 20:37:37 22° SSE
Cosmos 2333 Rocket 2.4 20:31:08 10° SSW 20:36:48 78° WNW 20:42:28 10° NNE
ERS-2 2.0 20:34:32 14° SSE 20:37:40 74° ENE 20:41:20 10° N
Resurs 1-3 4.0 20:35:47 20° SE 20:38:22 42° ENE 20:42:30 10° N
Cosmos 1151 Rocket 3.5 20:35:40 16° SSE 20:38:36 36° E 20:42:31 10° NNE
CZ-2D R/B 3.5 20:35:01 10° S 20:38:45 67° WSW 20:42:33 10° NNW
Cosmos 1455 2.0 20:35:13 10° S 20:39:00 73° E 20:42:51 10° N
Meteor 2-21 Rocket 4.4 20:33:39 10° S 20:39:45 85° E 20:45:57 10° N
Meteor 1-27 4.2 20:34:15 10° S 20:39:58 73° E 20:45:38 10° NNE
USA 186 1.1 20:40:40 48° NE 20:40:40 48° NE 20:42:37 10° N
COSMOS 2428 4.3 20:36:46 10° SW 20:42:04 38° WNW 20:47:23 10° N
SL-8 Rocket 4.3 20:37:33 10° SSE 20:43:29 45° E 20:49:24 10° NNE
Sich 1 2.9 20:40:35 10° N 20:44:52 87° W 20:49:06 10° S
Cosmos 1844 Rocket 2.6 20:40:34 10° NNW 20:46:16 86° ENE 20:50:46 17° SSE
Envisat 3.4 20:43:06 10° S 20:48:07 64° W 20:53:10 10° NNW
YAOGAN 6 2.4 20:48:33 27° SSE 20:50:22 77° ENE 20:53:59 10° N
Cosmos 2219 Rocket 3.3 20:45:56 10° SW 20:51:21 47° WNW 20:56:49 10° N
Cosmos 1892 2.7 20:48:40 10° N 20:52:34 85° W 20:55:08 20° S
Cosmos 1844 3.7 20:47:25 10° NNW 20:53:08 75° ENE 20:56:43 24° SSE
Cosmos 2237 Rocket 2.1 20:47:44 10° SSW 20:53:20 80° ESE 20:58:58 10° NNE
Cosmos 2251 Rocket 3.6 20:48:56 10° NNW 20:54:19 78° WSW 20:58:38 16° S
SJ-11-01 4.4 20:53:31 31° SE 20:55:33 55° ENE 21:00:07 10° N
Cosmos 2056 Rocket 3.9 20:57:10 25° SSE 20:59:42 41° E 21:04:44 10° NNE
Genesis I 4.1 21:01:21 10° N 21:05:02 34° ENE 21:05:02 34° ENE
Cosmos 1633 Rocket 3.4 21:02:35 10° NNW 21:06:54 64° W 21:09:49 20° S
Cosmos 2098 Rocket 3.6 21:07:13 42° E 21:07:13 42° E 21:11:08 10° NNE
NOAA 11 4.3 21:05:46 36° SE 21:07:48 58° ENE 21:13:12 10° N
Cosmos 2278 Rocket 2.7 21:03:33 10° N 21:08:52 40° ENE 21:09:51 37° E
Nadezhda 3 Rocket 4.4 21:03:21 10° NNW 21:09:35 64° W 21:15:51 10° S
Cosmos 1515 Rocket 3.7 21:07:54 11° S 21:12:09 76° W 21:16:37 10° N
Cosmos 864 Rocket 4.4 21:12:07 31° SSE 21:14:56 58° E 21:20:55 10° NNE
Cosmos 1624 Rocket 3.9 21:13:55 27° S 21:16:40 65° ESE 21:21:49 10° NNE
Cosmos 2228 Rocket 3.4 21:13:14 12° SSW 21:17:15 65° W 21:21:37 10° N
Sakura Rocket 2.8 21:16:49 10° W 21:21:08 68° SSW 21:21:08 68° SSW
ATLAS 2A CENTAUR R/B 4.0 21:02:29 10° WSW 21:23:16 58° SSE 21:27:50 37° ESE
ASTRO E2 3.3 21:23:00 10° WSW 21:26:03 49° SW 21:26:03 49° SW
Spot 2 Rocket 3.7 21:29:13 41° S 21:30:57 68° WSW 21:36:03 10° NNW
Cosmos 1825 3.2 21:27:21 10° N 21:29:47 38° N 21:29:47 38° N
OAO 2 Rocket 3.2 21:28:18 10° WNW 21:33:31 83° SSW 21:33:39 82° SSE
ATLAS 2AS CENTAUR R/B 2.8 21:29:58 10° NNW 21:37:44 88° ENE 21:39:43 53° SSE
Resurs 01 Rocket 3.2 21:39:36 24° SW 21:41:23 32° W 21:45:22 10° NW
SL-16 R/B 2.0 21:43:11 78° SSE 21:43:32 84° ESE 21:49:12 10° NNE
GEOS 3 Rocket 3.9 21:39:36 10° NNE 21:43:44 55° NE 21:43:44 55° NE
Cosmos 2344 3.4 21:39:32 10° SSW 21:47:16 63° ESE 21:54:56 10° NE
ARGOS 3.4 21:48:16 58° NNE 21:48:16 58° NNE 21:52:50 10° N
Cosmos 1727 Rocket 3.9 21:52:26 10° N 21:58:14 75° NE 21:58:14 75° NE
Meteor 2-10 Rocket 4.3 22:01:52 44° SW 22:03:17 55° W 22:08:59 10° N
ERS-1 Rocket 4.2 22:10:08 36° N 22:10:08 36° N 22:13:07 10° N
NOSS 3-4 (A) 4.3 22:01:15 10° NNW 22:07:53 46° NE 22:07:53 46° NE
NOSS 3-4 (C) 4.3 22:01:21 10° NNW 22:07:59 46° NE 22:07:59 46° NE
H-2A R/B 3.1 22:17:10 39° NNW 22:17:10 39° NNW 22:20:16 10° NNW
USA 267 3.3 22:10:25 10° NE 22:16:56 76° NW 22:23:27 10° SW
Cosmos 2278 Rocket 4.3 22:48:28 10° NW 22:51:44 20° W 22:51:44 20° W
